Location: Peach Mountain Observatory
(42.3967°N, 83.9367°W)
Time: 10:28:24
(UTC-05:00)

S-56A Canister/Altair - Pass Details

Date: 02 February 2020
Orbit: 633 x 2499 km, 38.9° (Epoch: 17 February)

Event Time Altitude Azimuth Distance (km) Brightness Sun altitude
Rises 21:16:21 0° 272° (W) 4,415 12.3 -38.1°
Reaches altitude 10° 21:19:51 10° 269° (W) 3,140 11.3 -38.7°
Enters shadow 21:24:12 33° 255° (WSW) 1,610 9.4 -39.5°
Maximum altitude 21:26:56 57° 193° (SSW) 1,038 - -40.0°
Drops below altitude 10° 21:31:56 10° 115° (ESE) 2,228 - -40.9°
Sets 21:34:03 0° 111° (ESE) 3,042 - -41.2°
